Flag for Iran Weather past 2 weeks in Bandar-Abbas, Iran

Now
95 °F

Scattered clouds.


Feels Like: 120 °F
Forecast: 84 / 102 °F
Wind: 12 mph from Southwest

Location: Bandarabbass

Current Time: Jul 30, 2014 at 10:20:41 AM

Latest Report: Jul 30, 2014 at 10:00 AM


Visibility: 2 mi

Pressure: 29.45 "Hg

Humidity: 67%

Dew point: 82 °F

Location of Bandar-AbbasLocation

Historic Weather in Bandar-Abbas — Graph

°F

Bandar-Abbas temperature yesterday

Maximum temperature yesterday: 100 °F (at 3:00 PM)
Minimum temperature yesterday: 88 °F (at 6:20 AM)
Average temperature yesterday: 94 °F

Past Weeks' High & Low Weather Summary

 TemperatureHumidityPressure
High109 °F (Jul 19, 1:00 PM)89% (Jul 24, 4:20 AM)29.59 "Hg (Jul 24, 4:20 AM)
Low82 °F (Jul 19, 6:30 AM)19% (Jul 20, 11:00 AM)29.30 "Hg (Jul 16, 5:00 PM)
Average95 °F68%29.41 "Hg
* Reported Jul 15 8:30 AM — Jul 30 9:00 AM, Bandar-Abbas, Weather by CustomWeather, © 2014

Note: Actual official high and low records may vary slightly from our data, if they occured in-between our weather recording intervals... More about our weather records

Advertising

Bandar-Abbas weather history for previous 24 hours

 ConditionsComfort  
Time TempWeatherWind HumidityBarometerVisibility
9:00 AM
Jul 30
93 °FScattered clouds.9 mph71%29.45 "Hg2 mi
8:30 AM93 °FScattered clouds.9 mph71%29.45 "Hg2 mi
8:00 AM91 °FScattered clouds.7 mph75%29.45 "Hg2 mi
7:30 AM91 °FHaze.7 mph71%29.45 "Hg2 mi
7:00 AM90 °FHaze.7 mph75%29.42 "Hg2 mi
6:30 AM90 °FHaze.5 mph79%29.42 "Hg2 mi
5:30 AM90 °FClear.7 mph79%29.39 "Hg2 mi
4:20 AM90 °FFog.7 mph79%29.39 "Hg2 mi
3:30 AM90 °FClear.9 mph79%29.39 "Hg2 mi
2:30 AM91 °FClear.9 mph80%29.39 "Hg2 mi
1:30 AM91 °FFog.7 mph80%29.39 "Hg2 mi
1:00 AM91 °FClear.7 mph80%29.39 "Hg2 mi
12:30 AM91 °FClear.7 mph80%29.39 "Hg2 mi
12:00 AM91 °FClear.9 mph80%29.39 "Hg2 mi
11:30 PM
Jul 29
91 °FClear.12 mph80%29.39 "Hg2 mi
11:00 PM93 °FClear.7 mph71%29.39 "Hg2 mi
10:30 PM93 °FClear.12 mph71%29.39 "Hg2 mi
10:00 PM93 °FHaze.9 mph71%29.39 "Hg2 mi
9:30 PM93 °FSandstorm.16 mph71%29.33 "Hg2 mi
9:00 PM95 °FSandstorm.16 mph67%29.36 "Hg2 mi
8:30 PM95 °FHaze.7 mph67%29.36 "Hg2 mi
8:00 PM95 °FHaze.9 mph67%29.33 "Hg2 mi
7:30 PM95 °FHaze.14 mph63%29.33 "Hg2 mi
6:55 PM95 °FHaze.14 mph71%29.33 "Hg2 mi
6:30 PM95 °FHaze.12 mph71%29.33 "Hg2 mi
6:00 PM97 °FSunny.14 mph67%29.33 "Hg2 mi
5:30 PM97 °FSandstorm.16 mph63%29.33 "Hg2 mi
5:00 PM97 °FSandstorm.16 mph67%29.33 "Hg2 mi
4:30 PM99 °FSandstorm.16 mph60%29.33 "Hg2 mi
4:00 PM99 °FSandstorm.16 mph60%29.36 "Hg2 mi
3:30 PM99 °FSandstorm.21 mph57%29.36 "Hg2 mi
3:00 PM100 °FSandstorm.16 mph57%29.36 "Hg2 mi
2:30 PM99 °FSandstorm.21 mph60%29.36 "Hg2 mi
2:00 PM99 °FSandstorm.18 mph64%29.36 "Hg2 mi
1:30 PM99 °FSandstorm.21 mph67%29.39 "Hg2 mi
1:00 PM97 °FSunny.14 mph67%29.36 "Hg3 mi
12:30 PM97 °FSunny.12 mph67%29.39 "Hg3 mi
12:00 PM97 °FSunny.14 mph67%29.39 "Hg2 mi
11:30 AM97 °FSunny.9 mph67%29.39 "Hg3 mi
11:00 AM97 °FSunny.9 mph63%29.42 "Hg3 mi
10:30 AM97 °FHaze.7 mph63%29.42 "Hg2 mi
10:00 AM97 °FHaze.7 mph63%29.42 "Hg2 mi
Weather by CustomWeather, © 2014

See weather overviewHow to use our weather pages